�������l�o���
Date,Time,MP-1(��Sv/h),MP-2(��Sv/h),MP-3(��Sv/h),MP-4(��Sv/h),MP-5(��Sv/h),MP-6(��Sv/h),MP-7(��Sv/h),MP-8(��Sv/h),����,����(m/s),���J
2017/10/17,00:00,0.886,1.391,0.911,1.680,1.146,0.494,0.896,0.835,�k�k��,3.9,�L
2017/10/17,00:10,0.887,1.390,0.913,1.680,1.145,0.494,0.896,0.835,�k�k��,4.1,�L
2017/10/17,00:20,0.885,1.388,0.911,1.680,1.147,0.492,0.895,0.836,�k�k��,2.9,�L
2017/10/17,00:30,0.885,1.392,0.910,1.680,1.145,0.494,0.895,0.835,�k�k��,4.4,�L
2017/10/17,00:40,0.886,1.393,0.910,1.680,1.147,0.493,0.894,0.835,�k�k��,4.2,�L
2017/10/17,00:50,0.887,1.392,0.910,1.678,1.145,0.493,0.895,0.835,�k�k��,2.5,�L
2017/10/17,01:00,0.884,1.392,0.911,1.680,1.146,0.493,0.895,0.834,�k�k��,3.6,�L
2017/10/17,01:10,0.887,1.392,0.910,1.680,1.146,0.494,0.896,0.834,�k�k��,3.7,�L
2017/10/17,01:20,0.885,1.393,0.911,1.683,1.146,0.492,0.895,0.835,�k�k��,3.4,�L
2017/10/17,01:30,0.887,1.393,0.911,1.683,1.145,0.493,0.897,0.835,�k�k��,3.8,�L
2017/10/17,01:40,0.887,1.393,0.910,1.683,1.146,0.494,0.896,0.834,�k�k��,4.5,�L
2017/10/17,01:50,0.886,1.392,0.908,1.680,1.145,0.493,0.897,0.834,�k�k��,4.5,�L
2017/10/17,02:00,0.887,1.392,0.911,1.681,1.144,0.493,0.895,0.836,�k�k��,4.8,�L
2017/10/17,02:10,0.885,1.390,0.911,1.683,1.146,0.493,0.894,0.836,�k�k��,3.5,�L
2017/10/17,02:20,0.885,1.391,0.909,1.682,1.145,0.493,0.895,0.834,�k,1.2,�L
2017/10/17,02:30,0.887,1.390,0.908,1.676,1.145,0.492,0.894,0.835,�k�k��,3.9,�L
2017/10/17,02:40,0.884,1.389,0.910,1.680,1.144,0.494,0.894,0.834,�k��,3.9,�L
2017/10/17,02:50,0.885,1.389,0.908,1.678,1.141,0.493,0.895,0.834,�k�k��,4.0,�L
2017/10/17,03:00,0.884,1.389,0.910,1.676,1.142,0.493,0.895,0.835,�k�k��,3.9,�L
2017/10/17,03:10,0.886,1.388,0.908,1.679,1.144,0.494,0.894,0.833,�k��,5.4,�L
2017/10/17,03:20,0.886,1.388,0.909,1.677,1.141,0.493,0.895,0.835,�k�k��,5.0,�L
2017/10/17,03:30,0.885,1.387,0.910,1.678,1.142,0.494,0.895,0.833,�k�k��,3.7,�L
2017/10/17,03:40,0.887,1.386,0.909,1.676,1.142,0.494,0.895,0.834,�k�k��,4.1,�L
2017/10/17,03:50,0.887,1.386,0.911,1.672,1.142,0.494,0.893,0.833,�k�k��,4.7,�L
2017/10/17,04:00,0.887,1.387,0.908,1.678,1.142,0.492,0.895,0.833,�k�k��,4.2,��
2017/10/17,04:10,0.884,1.389,0.910,1.678,1.141,0.493,0.894,0.833,�k�k��,3.3,��
2017/10/17,04:20,0.884,1.388,0.907,1.675,1.142,0.492,0.895,0.835,�k�k��,3.1,�L
2017/10/17,04:30,0.887,1.391,0.909,1.675,1.142,0.492,0.895,0.835,�k�k��,2.8,�L
2017/10/17,04:40,0.885,1.390,0.910,1.678,1.145,0.492,0.896,0.835,�k��,3.4,�L
2017/10/17,04:50,0.888,1.390,0.910,1.678,1.143,0.493,0.895,0.835,�k��,4.3,�L
2017/10/17,05:00,0.884,1.392,0.909,1.678,1.146,0.494,0.894,0.836,�k��,3.2,�L
2017/10/17,05:10,0.885,1.393,0.908,1.677,1.144,0.493,0.894,0.834,�k�k��,3.8,�L
2017/10/17,05:20,0.883,1.392,0.908,1.681,1.145,0.492,0.895,0.836,�k�k��,3.6,��
2017/10/17,05:30,0.887,1.392,0.908,1.679,1.145,0.493,0.894,0.836,�k�k��,3.5,��
2017/10/17,05:40,0.885,1.392,0.908,1.679,1.145,0.492,0.896,0.835,�k�k��,2.8,��
2017/10/17,05:50,0.885,1.392,0.911,1.679,1.143,0.492,0.895,0.834,�k��,2.8,��
2017/10/17,06:00,0.886,1.392,0.909,1.679,1.144,0.491,0.897,0.836,�k�k��,2.3,��
2017/10/17,06:10,0.886,1.393,0.909,1.682,1.144,0.491,0.896,0.835,�k�k��,2.5,��
2017/10/17,06:20,0.888,1.391,0.908,1.683,1.144,0.493,0.899,0.836,�k�k��,2.6,��
2017/10/17,06:30,0.886,1.392,0.907,1.681,1.146,0.492,0.899,0.835,�k�k��,2.6,��
2017/10/17,06:40,0.885,1.392,0.910,1.680,1.146,0.492,0.897,0.836,�k�k��,3.9,��
2017/10/17,06:50,0.884,1.395,0.910,1.682,1.146,0.492,0.897,0.837,�k�k��,3.5,��
2017/10/17,07:00,0.885,1.394,0.908,1.684,1.146,0.493,0.897,0.836,�k�k��,4.2,��
2017/10/17,07:10,0.887,1.395,0.910,1.682,1.147,0.492,0.896,0.837,�k�k��,3.5,��
2017/10/17,07:20,0.885,1.395,0.910,1.685,1.148,0.493,0.897,0.837,�k�k��,2.9,��
2017/10/17,07:30,0.885,1.396,0.906,1.686,1.146,0.492,0.896,0.837,�k�k��,2.9,��
2017/10/17,07:40,0.886,1.397,0.907,1.682,1.148,0.492,0.896,0.836,�k,3.4,��
2017/10/17,07:50,0.887,1.395,0.908,1.688,1.146,0.494,0.898,0.835,�k�k��,3.8,��
2017/10/17,08:00,0.887,1.397,0.912,1.686,1.148,0.493,0.897,0.835,�k�k��,3.7,��
2017/10/17,08:10,0.887,1.398,0.911,1.685,1.148,0.493,0.896,0.836,�k�k��,3.4,��
2017/10/17,08:20,0.888,1.395,0.912,1.687,1.150,0.492,0.896,0.836,�k�k��,3.6,��
2017/10/17,08:30,0.886,1.396,0.912,1.688,1.147,0.493,0.898,0.838,�k��,3.8,��
2017/10/17,08:40,0.887,1.397,0.912,1.688,1.149,0.493,0.895,0.838,�k��,3.4,��
2017/10/17,08:50,0.888,1.397,0.911,1.689,1.149,0.494,0.899,0.838,�k��,3.1,��
2017/10/17,09:00,0.888,1.400,0.912,1.689,1.147,0.490,0.899,0.839,�k��,3.3,��
2017/10/17,09:10,0.890,1.400,0.915,1.689,1.151,0.493,0.898,0.837,�k�k��,3.0,��
2017/10/17,09:20,0.891,1.402,0.913,1.690,1.151,0.493,0.898,0.838,�k��,2.9,��
2017/10/17,09:30,0.896,1.402,0.914,1.688,1.151,0.494,0.898,0.838,�k�k��,3.1,��
2017/10/17,09:40,0.896,1.403,0.914,1.695,1.150,0.491,0.898,0.837,�k,2.5,��
2017/10/17,09:50,0.892,1.401,0.915,1.692,1.152,0.494,0.899,0.839,�k�k��,2.0,��
2017/10/17,10:00,0.891,1.397,0.915,1.692,1.153,0.494,0.900,0.840,�k�k��,2.8,��
2017/10/17,10:10,0.891,1.400,0.916,1.693,1.152,0.493,0.899,0.837,�k��,2.0,��
2017/10/17,10:20,0.887,1.400,0.915,1.695,1.151,0.493,0.899,0.839,���k��,2.5,��
2017/10/17,10:30,0.892,1.400,0.916,1.695,1.155,0.492,0.899,0.838,�k�k��,3.5,��
2017/10/17,10:40,0.891,1.402,0.917,1.694,1.155,0.492,0.902,0.836,�k�k��,3.9,��
2017/10/17,10:50,0.892,1.401,0.916,1.697,1.156,0.491,0.900,0.838,�k�k��,2.8,��
2017/10/17,11:00,0.893,1.404,0.917,1.698,1.153,0.493,0.902,0.836,�k�k��,3.7,��
2017/10/17,11:10,0.891,1.403,0.915,1.694,1.157,0.493,0.904,0.837,�k��,3.5,��
2017/10/17,11:20,0.893,1.408,0.914,1.698,1.156,0.493,0.901,0.838,�k��,3.1,��
2017/10/17,11:30,0.898,1.407,0.916,1.697,1.159,0.492,0.901,0.838,�k��,3.7,��
2017/10/17,11:40,0.894,1.408,0.916,1.697,1.161,0.494,0.904,0.839,���k��,3.5,��
2017/10/17,11:50,0.894,1.408,0.917,1.699,1.159,0.493,0.902,0.838,�k��,3.6,��
2017/10/17,12:00,0.896,1.406,0.917,1.698,1.159,0.494,0.903,0.839,��,4.1,��
2017/10/17,12:10,0.896,1.411,0.919,1.701,1.158,0.494,0.904,0.839,���k��,3.0,��
2017/10/17,12:20,0.898,1.414,0.920,1.702,1.165,0.497,0.903,0.839,���k��,2.8,��
2017/10/17,12:30,0.899,1.412,0.919,1.703,1.164,0.495,0.904,0.836,���k��,2.5,��
2017/10/17,12:40,0.897,1.416,0.919,1.701,1.165,0.495,0.902,0.839,���k��,2.9,��
2017/10/17,12:50,0.897,1.415,0.921,1.701,1.164,0.496,0.905,0.838,��,3.1,��
2017/10/17,13:00,0.899,1.412,0.919,1.705,1.164,0.494,0.905,0.838,��,2.3,��
2017/10/17,13:10,0.897,1.412,0.919,1.702,1.165,0.494,0.903,0.838,��,2.3,��
2017/10/17,13:20,0.898,1.412,0.920,1.703,1.164,0.495,0.905,0.840,���쓌,2.0,��
2017/10/17,13:30,0.897,1.413,0.920,1.702,1.165,0.495,0.905,0.838,���쓌,1.9,��
2017/10/17,13:40,0.897,1.412,0.920,1.704,1.165,0.495,0.904,0.840,�쓌,3.2,��
2017/10/17,13:50,0.898,1.414,0.920,1.703,1.171,0.495,0.904,0.838,���쓌,2.6,��
2017/10/17,14:00,0.899,1.415,0.923,1.702,1.169,0.494,0.905,0.841,���쓌,2.3,��
2017/10/17,14:10,0.899,1.415,0.923,1.704,1.167,0.495,0.904,0.840,�쓌,3.3,��
2017/10/17,14:20,0.899,1.419,0.920,1.705,1.169,0.495,0.905,0.839,���쓌,3.4,��
2017/10/17,14:30,0.898,1.419,0.923,1.703,1.166,0.493,0.905,0.838,���쓌,2.5,��
2017/10/17,14:40,0.899,1.419,0.922,1.707,1.167,0.495,0.903,0.841,�쓌,2.6,��
2017/10/17,14:50,0.898,1.419,0.923,1.704,1.167,0.497,0.904,0.840,���쓌,2.3,��
2017/10/17,15:00,0.899,1.419,0.922,1.704,1.167,0.494,0.904,0.839,�쓌,2.6,��
2017/10/17,15:10,0.898,1.419,0.923,1.707,1.168,0.495,0.906,0.840,�쓌,2.5,��
2017/10/17,15:20,0.898,1.417,0.923,1.708,1.169,0.496,0.905,0.841,�쓌,2.8,��
2017/10/17,15:30,0.899,1.419,0.923,1.704,1.170,0.496,0.906,0.839,��쓌,2.6,��
2017/10/17,15:40,0.897,1.418,0.924,1.707,1.168,0.496,0.907,0.840,���쓌,2.0,��
2017/10/17,15:50,0.900,1.420,0.924,1.707,1.170,0.497,0.908,0.840,���쓌,3.0,��
2017/10/17,16:00,0.897,1.421,0.923,1.708,1.170,0.498,0.907,0.841,��쓌,2.3,��
2017/10/17,16:10,0.898,1.419,0.923,1.708,1.170,0.497,0.908,0.843,��쓌,3.2,��
2017/10/17,16:20,0.896,1.422,0.923,1.707,1.168,0.498,0.908,0.844,��쓌,2.2,��
2017/10/17,16:30,0.901,1.426,0.922,1.709,1.170,0.497,0.908,0.844,��쓌,2.8,��
2017/10/17,16:40,0.899,1.425,0.922,1.706,1.167,0.497,0.908,0.844,��,2.0,��
2017/10/17,16:50,0.897,1.425,0.918,1.708,1.168,0.498,0.908,0.843,��쓌,2.0,��
2017/10/17,17:00,0.896,1.423,0.925,1.708,1.170,0.498,0.910,0.842,��쓌,2.5,��
2017/10/17,17:10,0.902,1.425,0.925,1.709,1.172,0.499,0.908,0.844,��,1.9,��
2017/10/17,17:20,0.902,1.424,0.923,1.710,1.170,0.498,0.908,0.843,�쐼,0.8,��
2017/10/17,17:30,0.902,1.423,0.924,1.707,1.174,0.499,0.907,0.842,��,3.3,��
2017/10/17,17:40,0.899,1.425,0.924,1.705,1.172,0.497,0.908,0.842,��,2.9,��
2017/10/17,17:50,0.900,1.423,0.925,1.706,1.174,0.498,0.907,0.843,��,1.2,��
2017/10/17,18:00,0.896,1.424,0.926,1.707,1.176,0.497,0.907,0.841,-,CALM,��
2017/10/17,18:10,0.901,1.425,0.926,1.708,1.173,0.498,0.905,0.844,���쐼,0.6,��
2017/10/17,18:20,0.901,1.424,0.924,1.706,1.173,0.498,0.906,0.841,�쐼,0.6,��
2017/10/17,18:30,0.902,1.425,0.925,1.706,1.173,0.498,0.906,0.843,-,CALM,��
2017/10/17,18:40,0.900,1.424,0.925,1.708,1.174,0.497,0.906,0.842,�쐼,0.9,��
2017/10/17,18:50,0.900,1.425,0.925,1.708,1.174,0.496,0.907,0.841,-,CALM,��
2017/10/17,19:00,0.901,1.424,0.926,1.707,1.171,0.497,0.907,0.842,��쐼,0.8,��
2017/10/17,19:10,0.899,1.422,0.926,1.706,1.171,0.497,0.908,0.843,��,2.3,��
2017/10/17,19:20,0.901,1.423,0.925,1.705,1.174,0.499,0.907,0.843,�쐼,2.3,��
2017/10/17,19:30,0.900,1.426,0.927,1.705,1.173,0.498,0.906,0.842,��쐼,2.6,��
2017/10/17,19:40,0.900,1.423,0.925,1.706,1.172,0.497,0.907,0.843,��,2.0,��
2017/10/17,19:50,0.902,1.424,0.925,1.707,1.174,0.499,0.907,0.841,�k��,3.2,��
2017/10/17,20:00,0.900,1.424,0.925,1.704,1.174,0.497,0.906,0.841,�k��,5.1,��
2017/10/17,20:10,0.902,1.424,0.924,1.708,1.173,0.497,0.908,0.843,�k�k��,5.3,��
2017/10/17,20:20,0.901,1.425,0.924,1.706,1.172,0.498,0.907,0.842,�k��,5.3,��
2017/10/17,20:30,0.902,1.426,0.926,1.707,1.175,0.498,0.908,0.842,�k��,5.1,��
2017/10/17,20:40,0.901,1.424,0.927,1.709,1.172,0.497,0.907,0.841,�k��,5.5,��
2017/10/17,20:50,0.901,1.425,0.923,1.709,1.172,0.497,0.906,0.841,�k��,5.9,��
2017/10/17,21:00,0.898,1.424,0.926,1.709,1.171,0.499,0.908,0.843,�k��,5.8,��
2017/10/17,21:10,0.899,1.422,0.923,1.707,1.173,0.498,0.907,0.840,�k��,6.1,��
2017/10/17,21:20,0.899,1.422,0.924,1.709,1.174,0.497,0.906,0.842,�k��,5.5,��
2017/10/17,21:30,0.900,1.424,0.924,1.709,1.174,0.497,0.906,0.842,���k��,4.1,��
2017/10/17,21:40,0.902,1.423,0.925,1.710,1.173,0.496,0.908,0.841,�k��,4.9,��
2017/10/17,21:50,0.898,1.423,0.926,1.707,1.174,0.497,0.906,0.842,�k��,5.4,��
2017/10/17,22:00,0.898,1.423,0.924,1.707,1.172,0.496,0.907,0.842,���k��,6.8,��
2017/10/17,22:10,0.899,1.421,0.925,1.710,1.173,0.496,0.909,0.842,���k��,7.2,��
2017/10/17,22:20,0.899,1.422,0.924,1.708,1.172,0.497,0.907,0.842,���k��,6.3,��
2017/10/17,22:30,0.901,1.423,0.924,1.709,1.173,0.498,0.907,0.842,�k��,6.0,��
2017/10/17,22:40,0.900,1.424,0.927,1.706,1.172,0.496,0.908,0.843,���k��,5.6,��
2017/10/17,22:50,0.899,1.426,0.925,1.709,1.173,0.498,0.905,0.842,���k��,4.8,��
2017/10/17,23:00,0.901,1.423,0.924,1.707,1.173,0.496,0.908,0.841,���k��,5.1,��
2017/10/17,23:10,0.899,1.424,0.924,1.710,1.173,0.496,0.907,0.842,���k��,5.6,��
2017/10/17,23:20,0.899,1.423,0.924,1.709,1.174,0.497,0.907,0.841,���k��,6.2,��
2017/10/17,23:30,0.900,1.422,0.926,1.709,1.174,0.497,0.907,0.842,���k��,5.8,��
2017/10/17,23:40,0.900,1.422,0.922,1.710,1.172,0.497,0.907,0.841,���k��,6.3,��
2017/10/17,23:50,0.901,1.423,0.927,1.708,1.174,0.496,0.907,0.842,��,8.0,��
